Jonesboro, AR

5:42 AM CST on December 13, 2017 (GMT -0600)
Jonesboro Municipal

Weather History for KJBR - July, 2012

Change the Weather History Date:

Friday, July 27, 2012

  Actual Average Record
Temperature  
Mean Temperature 84 °F 81 °F  
Max Temperature 93 °F 91 °F 107 °F (1930)
Min Temperature 74 °F 71 °F 52 °F (1897)
Degree Days  
Heating Degree Days 0 0  
Month to date heating degree days 0 0  
Since 1 June heating degree days 0 1  
Since 1 July heating degree days 0 0  
Cooling Degree Days 19 16  
Month to date cooling degree days 573 431  
Year to date cooling degree days 1478 1027  
Since 1 June cooling degree days 974 814  
Growing Degree Days 33 (Base 50)    
Moisture  
Dew Point 72 °F    
Average Humidity 69    
Maximum Humidity 94    
Minimum Humidity 44    
Precipitation  
Precipitation T in 0.08 in 3.75 in (1933)
Month to date precipitation 0.77 3.23  
Year to date precipitation 15.51 28.26  
Snow  
Snow 0.00 in - - ()
Month to date snowfall 0.0  
Since 1 June snowfall 0.0  
Snow Depth 0.00 in    
Sea Level Pressure  
Sea Level Pressure 29.94 in    
Wind  
Wind Speed 7 mph (SW)    
Max Wind Speed 15 mph    
Max Gust Speed 21 mph    
Visibility 10 miles    
Events      
T = Trace of Precipitation, MM = Missing Value Source: NWS Daily Summary

Daily Weather History Graph

Daily Weather History Graph

Search for Another Location

Airport or City:

Trip Planner

Search our weather history database for the weather conditions in past years. The results will help you decide how hot, cold, wet, or windy it might be!

Date:

Astronomy

Jul. 27, 2012 Rise Set
Actual Time 6:06 AM CDT 8:10 PM CDT
Civil Twilight 5:38 AM CDT 8:39 PM CDT
Nautical Twilight 5:03 AM CDT 9:14 PM CDT
Astronomical Twilight 4:26 AM CDT 9:51 PM CDT
Moon 3:07 PM CDT (7/27) 12:38 AM CDT (7/27)
Length of Visible Light 15h 01m
Length of Day
14h 04m
Waxing Gibbous, 65% of the Moon is Illuminated
Jul 27
Waxing Gibbous
Aug 1
Full
Aug 9
Last Quarter
Aug 17
New
Aug 24
First Quarter

Hourly Weather History & Observations

Time (CDT) Temp. Heat Index Dew Point Humidity Pressure Visibility Wind Dir Wind Speed Gust Speed Precip Events Conditions
12:53 AM 75.9 °F - 73.0 °F 91% 29.93 in 10.0 mi South 4.6 mph - 0.00 in   Clear
1:53 AM 75.9 °F - 73.0 °F 91% 29.91 in 10.0 mi NW 4.6 mph - 0.00 in   Scattered Clouds
2:53 AM 75.0 °F - 73.0 °F 94% 29.90 in 10.0 mi WSW 9.2 mph - N/A   Partly Cloudy
3:16 AM 75.2 °F - 73.4 °F 94% 29.90 in 10.0 mi West 5.8 mph - N/A   Partly Cloudy
3:53 AM 75.0 °F - 72.0 °F 90% 29.89 in 10.0 mi Calm Calm - N/A   Clear
4:53 AM 75.0 °F - 72.0 °F 90% 29.88 in 10.0 mi Calm Calm - N/A   Clear
5:53 AM 73.9 °F - 72.0 °F 93% 29.92 in 10.0 mi Calm Calm - N/A   Clear
6:53 AM 75.0 °F - 72.0 °F 90% 29.94 in 10.0 mi SW 6.9 mph - N/A   Clear
7:53 AM 78.1 °F - 73.0 °F 84% 29.96 in 10.0 mi WSW 5.8 mph - N/A   Clear
8:53 AM 79.0 °F - 73.0 °F 82% 29.98 in 10.0 mi WSW 8.1 mph - N/A   Partly Cloudy
9:14 AM 80.6 °F 84.6 °F 71.6 °F 74% 29.99 in 10.0 mi WSW 5.8 mph - N/A   Mostly Cloudy
9:21 AM 80.6 °F 85.4 °F 73.4 °F 79% 29.99 in 10.0 mi WSW 4.6 mph - N/A   Scattered Clouds
9:53 AM 81.0 °F 85.8 °F 73.0 °F 77% 29.98 in 10.0 mi West 5.8 mph - N/A   Clear
10:53 AM 82.0 °F 86.7 °F 72.0 °F 71% 29.99 in 10.0 mi SW 6.9 mph - N/A   Clear
11:53 AM 82.9 °F 87.5 °F 71.1 °F 67% 29.99 in 10.0 mi SW 3.5 mph - N/A   Partly Cloudy
12:53 PM 87.1 °F 93.6 °F 72.0 °F 61% 29.99 in 10.0 mi South 4.6 mph - N/A   Clear
1:53 PM 88.0 °F 93.8 °F 71.1 °F 57% 29.98 in 10.0 mi SSW 11.5 mph - N/A   Clear
2:53 PM 90.0 °F 95.4 °F 70.0 °F 52% 29.95 in 10.0 mi SSW 9.2 mph - N/A   Clear
3:53 PM 91.9 °F 95.4 °F 66.9 °F 44% 29.93 in 10.0 mi South 9.2 mph - N/A   Clear
4:53 PM 93.2 °F 100.5 °F 71.6 °F 49% 29.91 in 10.0 mi SW 8.1 mph - N/A   Clear
5:53 PM 91.0 °F 98.2 °F 72.0 °F 53% 29.91 in 10.0 mi SSW 12.7 mph - N/A   Clear
6:53 PM 90.0 °F 99.0 °F 73.9 °F 59% 29.92 in 10.0 mi SW 11.5 mph - N/A   Clear
7:53 PM 87.1 °F 96.3 °F 75.0 °F 67% 29.94 in 10.0 mi South 6.9 mph - N/A   Clear
8:53 PM 86.0 °F 93.0 °F 73.0 °F 65% 29.93 in 10.0 mi SSW 10.4 mph - N/A   Clear
9:53 PM 82.9 °F 88.0 °F 72.0 °F 69% 29.96 in 10.0 mi SSW 8.1 mph - N/A   Clear
10:53 PM 81.0 °F 85.2 °F 72.0 °F 74% 29.96 in 10.0 mi SW 8.1 mph - N/A   Clear
11:53 PM 80.1 °F 83.8 °F 72.0 °F 76% 29.97 in 10.0 mi WSW 9.2 mph - N/A   Clear